Home > Weather > Hilo > Past weeks

Flag for USA Past Weather in Hilo, Hawaii, USA — Yesterday and Last 2 Weeks

Now
83 °F

Scattered clouds.


Feels Like: 89 °F
Forecast: 71 / 87 °F
Wind: 13 mph from East

Location: Hilo International Airport

Current Time: Jul 26, 2016 at 11:58:43 AM

Latest Report: Jul 26, 2016 at 10:53 AM


Visibility: 10 mi

Pressure: 30.02 "Hg

Humidity: 72%

Dew Point: 73 °F

Location of HiloLocation

Past Weather in Hilo — Graph

°F

Hilo Temperature Yesterday

Maximum temperature yesterday: 87 °F (at 11:53 AM)
Minimum temperature yesterday: 74 °F (at 4:53 AM)
Average temperature yesterday: 79 °F

High & Low Weather Summary for the Past Weeks

 TemperatureHumidityPressure
High87 °F (Jul 25, 11:53 AM)100% (Jul 12, 1:02 AM)30.09 "Hg (Jul 12, 1:02 AM)
Low70 °F (Jul 13, 3:53 AM)59% (Jul 20, 9:53 AM)29.78 "Hg (Jul 23, 2:04 PM)
Average78 °F82%29.97 "Hg
* Reported Jul 11 10:53 AM — Jul 26 10:53 AM, Hilo, Weather by CustomWeather, © 2016

Note: Actual official high and low records may vary slightly from our data, if they occured in-between our weather recording intervals... More about our weather records

Advertising

Hilo Weather History for the Previous 24 Hours

Scroll right to see more
 ConditionsComfort  
Time TempWeatherWind HumidityBarometerVisibility
10:53 AM
Tue, Jul 26
83 °FScattered clouds.13 mph72%30.02 "Hg10 mi
9:53 AM85 °FScattered clouds.9 mph65%30.03 "Hg10 mi
8:53 AM83 °FPassing clouds.5 mph65%30.02 "Hg10 mi
7:53 AM79 °FScattered clouds.No wind69%30.01 "Hg10 mi
6:53 AM73 °FPassing clouds.7 mph69%30.01 "Hg10 mi
5:53 AM73 °FPassing clouds.7 mph74%29.99 "Hg10 mi
4:53 AM73 °FPartly cloudy.9 mph71%29.99 "Hg10 mi
3:53 AM73 °FPassing clouds.7 mph71%29.99 "Hg10 mi
2:53 AM73 °FPassing clouds.8 mph81%29.99 "Hg10 mi
1:53 AM73 °FPassing clouds.8 mph79%30.00 "Hg10 mi
12:53 AM73 °FPassing clouds.8 mph81%30.01 "Hg10 mi
11:53 PM
Mon, Jul 25
74 °FPassing clouds.8 mph85%30.03 "Hg10 mi
10:53 PM75 °FClear.6 mph88%30.03 "Hg10 mi
9:53 PM77 °FClear.5 mph85%30.02 "Hg10 mi
8:53 PM77 °FClear.5 mph85%30.01 "Hg10 mi
7:53 PM78 °FPassing clouds.5 mph82%30.01 "Hg10 mi
6:53 PM79 °FSunny.7 mph79%29.98 "Hg10 mi
5:53 PM81 °FSunny.9 mph74%29.97 "Hg10 mi
4:53 PM84 °FSunny.8 mph70%29.96 "Hg10 mi
3:53 PM84 °FScattered clouds.10 mph70%29.97 "Hg10 mi
2:53 PM85 °FScattered clouds.13 mph68%29.96 "Hg10 mi
1:53 PM86 °FScattered clouds.9 mph67%29.97 "Hg10 mi
12:53 PM86 °FScattered clouds.12 mph65%29.98 "Hg10 mi
11:53 AM87 °FScattered clouds.9 mph59%30.00 "Hg10 mi
Weather by CustomWeather, © 2016

See weather overviewHow to use our weather pages